Location: Amsterdam
(30.7274°N, 84.4357°W)
Time: 21:17:48
(UTC+00:00)

Injun/Solrad 3 - Pass Details

Date: 22 February 2026
Orbit: 872 x 984 km, 66.8° (Epoch: 8 March)

Event Time Altitude Azimuth Distance (km) Brightness Sun altitude
Rises 16:52:47 0° 253° (WSW) 3,451 10.9 46.9°
Reaches altitude 10° 16:56:29 10° 276° (W) 2,523 10.1 47.2°
Maximum altitude 16:59:36 15° 309° (NW) 2,221 9.7 47.4°
Drops below altitude 10° 17:02:45 10° 342° (NNW) 2,550 9.9 47.6°
Sets 17:06:33 0° 6° (N) 3,513 10.5 47.9°
